Preview of NWS' New Version of Forecast
This preview is not operational and should not be used for support decisions.

Regional Weather Roundup (RWR)

Issued by National Weather Service (NWS)

                            
000
ASUS46 KPQR 191710
RWROR 

OREGON REGIONAL WEATHER ROUNDUP
NATIONAL WEATHER SERVICE PORTLAND OR
900 AM PST TUE FEB 19 2019

NOTE: "FAIR" INDICATES FEW OR NO CLOUDS BELOW 12,000 FEET WITH
NO SIGNIFICANT WEATHER AND/OR OBSTRUCTIONS TO VISIBILITY.

ORZ001>013-191800-
NORTHWEST OREGON

  
CITY           SKY/WX    TMP DP  RH WIND       PRES   REMARKS
ASTORIA        CLOUDY    42  40  92 W3        30.25F                  
TILLAMOOK      LGT RAIN  39  37  93 CALM      30.30S                  
NEWPORT        LGT RAIN  39  39 100 CALM      30.32F                  
PORTLAND       CLOUDY    40  35  83 SW5       30.29S                  
VANCOUVER WA   CLOUDY    40  36  86 CALM      30.28S                  
SCAPPOOSE      CLOUDY    40  37  89 SE3       30.27S FOG              
HILLSBORO      CLOUDY    37  36  96 CALM      30.27F FOG              
AURORA         CLOUDY    39  35  86 SW7       30.30S                  
MCMINNVILLE    CLOUDY    38  36  92 SW6       30.28F                  
SALEM          CLOUDY    39  33  79 S10       30.29R                  
CORVALLIS      CLOUDY    36  35  96 S8        30.31S                  
EUGENE         CLOUDY    37  33  85 S6        30.31F                  
$$

ORZ021-028-191800-
SOUTHWEST OREGON

  
CITY           SKY/WX    TMP DP  RH WIND       PRES   REMARKS
NORTH BEND     CLOUDY    38  36  92 SE9       30.35F                  
BROOKINGS      SUNNY     44  27  51 VRB6      30.32S                  
ROSEBURG       CLOUDY    34  31  88 CALM      30.34F                  
SEXTON SUMMIT  SUNNY     26  24  92 VRB3      30.19F                  
GRANTS PASS    CLOUDY    28  27  93 CALM      30.37                   
MEDFORD        MOSUNNY   28  25  88 CALM      30.34S                  
$$

ORZ014>016-041-191800-
COLUMBIA GORGE

  
CITY           SKY/WX    TMP DP  RH WIND       PRES   REMARKS
TROUTDALE      CLOUDY    40  36  86 VRB3      30.28F                  
HOOD RIVER     CLOUDY    37  32  81 NW13G21   30.19F WCI  29          
THE DALLES     CLOUDY    39  31  72 W10       30.19F                  
$$

ORZ029>031-041-044-049-050-061>064-502-503-505>511-191800-
EASTERN OREGON

  
CITY           SKY/WX    TMP DP  RH WIND       PRES   REMARKS
MADRAS         NOT AVBL                                               
REDMOND        PTSUNNY   29  20  69 S8        30.12F                  
BEND           MOSUNNY   28  19  69 S6        30.12F                  
PRINEVILLE     PTSUNNY   27  21  80 E3        30.13F                  
KLAMATH FALLS  SUNNY     23  18  81 CALM      30.18S                  
LAKEVIEW       SUNNY     17  11  77 SE3       30.16R                  
HERMISTON      CLOUDY    23  21  92 SW5       30.17F FOG              
PENDLETON      CLOUDY    33  26  75 W10       30.11F WCI  25          
JOHN DAY       CLOUDY    30  23  75 W6        30.09                   
MEACHAM        MIX PCPN  26  21  81 MISG      30.02F                  
LA GRANDE      CLOUDY    31  23  72 W3        30.09F                  
BAKER CITY     CLOUDY    27  19  72 S3        30.07F                  
BURNS          CLOUDY    27  16  63 W9        30.09F                  
ROME             N/A     24  14  65 SE9       30.09F                  
ONTARIO        CLOUDY    29  18  63 CALM      30.17S                  
$$